Weather History for LTCF - September, 2013

Change the Weather History Date:

Sunday, September 29, 2013

  Actual Average Record
Temperature  
Mean Temperature 49 °F -  
Max Temperature 65 °F 56 °F - ()
Min Temperature 33 °F 32 °F - ()
Degree Days  
Heating Degree Days 16    
Moisture  
Dew Point 33 °F    
Average Humidity 55    
Maximum Humidity 100    
Minimum Humidity 17    
Precipitation  
Precipitation 0.00 in 0.05 in - ()
Sea Level Pressure  
Sea Level Pressure 30.06 in    
Wind  
Wind Speed 6 mph ()    
Max Wind Speed 16 mph    
Max Gust Speed 26 mph    
Visibility 6.2 miles    
Events      
T = Trace of Precipitation, MM = Missing Value Source: Averaged Metar Reports

Daily Weather History Graph

Daily Weather History Graph

Search for Another Location

Airport or City:

Trip Planner

Search our weather history database for the weather conditions in past years. The results will help you decide how hot, cold, wet, or windy it might be!

Date:

Astronomy

Sep. 29, 2013 Rise Set
Actual Time 6:02 AM EEST 5:53 PM EEST
Civil Twilight 5:34 AM EEST 6:20 PM EEST
Nautical Twilight 5:03 AM EEST 6:52 PM EEST
Astronomical Twilight 4:30 AM EEST 7:24 PM EEST
Moon 12:22 AM EEST (9/29) 2:37 PM EEST (9/29)
Length of Visible Light 12h 45m
Length of Day
11h 51m
Waning Crescent, 30% of the Moon is Illuminated
Sep 29
Waning Crescent
Oct 5
New
Oct 12
First Quarter
Oct 19
Full
Oct 27
Last Quarter

Hourly Weather History & Observations

Time (EEST) Temp. Windchill Dew Point Humidity Pressure Visibility Wind Dir Wind Speed Gust Speed Precip Events Conditions
12:50 AM 44.6 °F 39.2 °F 37.4 °F 76% 30.06 in 6.2 mi ENE 10.4 mph - N/A   Partly Cloudy
1:50 AM 42.8 °F 38.0 °F 37.4 °F 81% 30.06 in - ESE 8.1 mph - N/A   Clear
2:50 AM 41.0 °F 37.1 °F 35.6 °F 81% 30.06 in - ESE 5.8 mph - N/A   Clear
3:00 AM 40 °F - 36 °F 78%  in 6 mi ESE 5.8 mph - -  
3:50 AM 39.2 °F - 35.6 °F 87% 30.06 in - Calm Calm - N/A   Clear
4:50 AM 35.6 °F - 35.6 °F 100% 30.06 in - Calm Calm - N/A   Clear
5:50 AM 35.6 °F - 33.8 °F 93% 30.06 in - Calm Calm - N/A   Clear
6:50 AM 35.6 °F - 30.2 °F 81% 30.04 in 6.2 mi WNW 1.2 mph - N/A   Partly Cloudy
7:50 AM 46.4 °F - 37.4 °F 71% 30.09 in - Calm Calm - N/A   Clear
8:50 AM 51.8 °F - 35.6 °F 54% 30.09 in 6.2 mi Variable 1.2 mph - N/A   Partly Cloudy
9:00 AM 52 °F - 36 °F 44%  in 6 mi West 1.2 mph - -   Scattered Clouds
9:50 AM 57.2 °F - 32.0 °F 38% 30.09 in 6.2 mi SW 9.2 mph - N/A   Partly Cloudy
10:50 AM 62.6 °F - 26.6 °F 26% 30.06 in 6.2 mi West 12.7 mph - N/A   Partly Cloudy
11:50 AM 62.6 °F - 26.6 °F 26% 30.04 in 6.2 mi West 16.1 mph - N/A   Partly Cloudy
12:50 PM 64.4 °F - 28.4 °F 26% 30.04 in 6.2 mi WNW 15.0 mph - N/A   Scattered Clouds
1:50 PM 64.4 °F - 28.4 °F 26% 30.04 in 6.2 mi West 15.0 mph 26.5 mph N/A   Mostly Cloudy
2:50 PM 62.6 °F - 28.4 °F 27% 30.01 in 6.2 mi West 11.5 mph - N/A   Mostly Cloudy
3:00 PM 62 °F - 28 °F 17%  in 6 mi West 11.5 mph - -   Mostly Cloudy
3:50 PM 62.6 °F - 28.4 °F 27% 30.01 in 6.2 mi WNW 6.9 mph - N/A   Mostly Cloudy
4:50 PM 62.6 °F - 28.4 °F 27% 30.01 in 6.2 mi Calm Calm - N/A   Mostly Cloudy
5:50 PM 59.0 °F - 30.2 °F 34% 30.04 in 6.2 mi North 9.2 mph - N/A   Mostly Cloudy
6:50 PM 55.4 °F - 33.8 °F 44% 30.06 in 6.2 mi Variable 4.6 mph - N/A   Scattered Clouds
7:50 PM 50.0 °F - 33.8 °F 54% 30.06 in 6.2 mi East 8.1 mph - N/A   Scattered Clouds
8:50 PM 46.4 °F 42.9 °F 33.8 °F 62% 30.06 in - East 6.9 mph - N/A   Clear
9:00 PM 46 °F - 34 °F 51%  in 6 mi East 6.9 mph - -  
9:50 PM 46.4 °F 41.9 °F 33.8 °F 62% 30.09 in 6.2 mi ESE 9.2 mph - N/A   Partly Cloudy
10:50 PM 41.0 °F 36.4 °F 33.8 °F 76% 30.09 in 6.2 mi ENE 6.9 mph - N/A   Partly Cloudy
11:50 PM 42.8 °F 37.5 °F 33.8 °F 70% 30.09 in 6.2 mi ESE 9.2 mph - N/A   Partly Cloudy